contact:dominique.lefevre@mio.osupytheas.fr, maurice.libes@osupytheas.fr, didier.mallarino@osupytheas.fr
Project:EMSO http://www.emso-fr.org/EMSO-France
Depth: 2436.0 m
Title:EMSO Ligure Ouest : Data MII capteur CSTAR
DateTime,Latitude,Longitude,Instrument_Serial,Reference_Counts,Signal_Counts,Corrected_Signal_raw_counts,Calculated_Beam_c_inverse_meters,Internal_thermistor_counts
DateTime,Latitude,Longitude,Instrument_Serial,Reference_Counts,Signal_Counts,Corrected_Signal_raw_counts,Calculated_Beam_c_inverse_meters,Internal_thermistor_counts
2022-11-06T00:01:26,42.805,6.029,CST-1368DR,4512,5071,11957,01.068,551
2022-11-06T00:04:28,42.805,6.029,CST-1368DR,4512,5070,11954,01.069,551
2022-11-06T00:07:29,42.805,6.029,CST-1368DR,4512,5070,11953,01.069,551
2022-11-06T00:10:31,42.805,6.029,CST-1368DR,4512,5072,11958,01.068,551
2022-11-06T00:13:33,42.805,6.029,CST-1368DR,4512,5074,11964,01.066,551
2022-11-06T00:16:34,42.805,6.029,CST-1368DR,4512,5069,11952,01.070,551
2022-11-06T00:19:36,42.805,6.029,CST-1368DR,4512,5067,11947,01.071,551
2022-11-06T00:22:37,42.805,6.029,CST-1368DR,4512,5068,11949,01.071,551
2022-11-06T00:25:39,42.805,6.029,CST-1368DR,4512,5067,11947,01.071,551
2022-11-06T00:28:41,42.805,6.029,CST-1368DR,4512,5071,11955,01.069,551
2022-11-06T00:31:42,42.805,6.029,CST-1368DR,4512,5073,11960,01.067,551
2022-11-06T00:34:44,42.805,6.029,CST-1368DR,4512,5070,11953,01.069,551
2022-11-06T00:37:45,42.805,6.029,CST-1368DR,4512,5068,11950,01.070,551
2022-11-06T00:40:47,42.805,6.029,CST-1368DR,4512,5069,11952,01.070,551
2022-11-06T00:43:48,42.805,6.029,CST-1368DR,4512,5071,11956,01.068,551
2022-11-06T00:46:50,42.805,6.029,CST-1368DR,4512,5074,11962,01.066,551
2022-11-06T00:49:52,42.805,6.029,CST-1368DR,4512,5071,11956,01.068,551
2022-11-06T00:52:53,42.805,6.029,CST-1368DR,4512,5066,11944,01.072,551
2022-11-06T00:55:55,42.805,6.029,CST-1368DR,4512,5066,11943,01.073,551
2022-11-06T00:58:56,42.805,6.029,CST-1368DR,4512,5072,11957,01.068,551
2022-11-06T01:01:58,42.805,6.029,CST-1368DR,4512,5072,11957,01.068,551
2022-11-06T01:04:59,42.805,6.029,CST-1368DR,4512,5073,11961,01.067,551
2022-11-06T01:08:01,42.805,6.029,CST-1368DR,4512,5069,11952,01.070,551
2022-11-06T01:11:03,42.805,6.029,CST-1368DR,4512,5079,11974,01.062,551
2022-11-06T01:14:04,42.805,6.029,CST-1368DR,4512,5073,11960,01.067,551
2022-11-06T01:17:06,42.805,6.029,CST-1368DR,4512,5073,11962,01.066,551
2022-11-06T01:20:07,42.805,6.029,CST-1368DR,4512,5073,11962,01.066,551
2022-11-06T01:23:09,42.805,6.029,CST-1368DR,4512,5079,11974,01.062,551
2022-11-06T01:26:11,42.805,6.029,CST-1368DR,4512,5076,11969,01.064,551
2022-11-06T01:29:12,42.805,6.029,CST-1368DR,4512,5074,11963,01.066,551
2022-11-06T01:32:14,42.805,6.029,CST-1368DR,4512,5071,11956,01.068,550
2022-11-06T01:35:15,42.805,6.029,CST-1368DR,4512,5074,11964,01.066,551
2022-11-06T01:38:17,42.805,6.029,CST-1368DR,4512,5075,11966,01.065,551
2022-11-06T01:41:18,42.805,6.029,CST-1368DR,4512,5076,11967,01.065,551
2022-11-06T01:44:20,42.805,6.029,CST-1368DR,4512,5076,11967,01.065,551
2022-11-06T01:47:22,42.805,6.029,CST-1368DR,4512,5075,11965,01.065,551
2022-11-06T01:50:23,42.805,6.029,CST-1368DR,4512,5076,11967,01.065,551
2022-11-06T01:53:25,42.805,6.029,CST-1368DR,4512,5072,11957,01.068,551
2022-11-06T01:56:26,42.805,6.029,CST-1368DR,4512,5075,11966,01.065,551
2022-11-06T01:59:28,42.805,6.029,CST-1368DR,4512,5075,11966,01.065,551
2022-11-06T02:02:30,42.805,6.029,CST-1368DR,4512,5074,11964,01.066,551
2022-11-06T02:05:31,42.805,6.029,CST-1368DR,4512,5075,11965,01.065,551
2022-11-06T02:08:33,42.805,6.029,CST-1368DR,4512,5074,11964,01.066,551
2022-11-06T02:11:34,42.805,6.029,CST-1368DR,4512,5074,11962,01.066,551
2022-11-06T02:14:36,42.805,6.029,CST-1368DR,4512,5071,11955,01.069,551
2022-11-06T02:17:37,42.805,6.029,CST-1368DR,4512,5077,11969,01.064,551
2022-11-06T02:20:39,42.805,6.029,CST-1368DR,4512,5075,11965,01.065,551
2022-11-06T02:23:41,42.805,6.029,CST-1368DR,4512,5074,11963,01.066,551
2022-11-06T02:26:42,42.805,6.029,CST-1368DR,4512,5074,11964,01.066,551
2022-11-06T02:29:44,42.805,6.029,CST-1368DR,4512,5077,11969,01.064,551
2022-11-06T02:32:45,42.805,6.029,CST-1368DR,4512,5073,11962,01.066,551
2022-11-06T02:35:47,42.805,6.029,CST-1368DR,4512,5074,11962,01.066,551
2022-11-06T02:38:48,42.805,6.029,CST-1368DR,4512,5074,11962,01.066,551
2022-11-06T02:41:50,42.805,6.029,CST-1368DR,4512,5070,11954,01.069,551
2022-11-06T02:44:52,42.805,6.029,CST-1368DR,4512,5073,11960,01.067,551
2022-11-06T02:47:53,42.805,6.029,CST-1368DR,4512,5074,11963,01.066,551
2022-11-06T02:50:55,42.805,6.029,CST-1368DR,4512,5070,11953,01.069,551
2022-11-06T02:53:56,42.805,6.029,CST-1368DR,4512,5070,11954,01.069,551
2022-11-06T02:56:58,42.805,6.029,CST-1368DR,4512,5072,11959,01.067,551
2022-11-06T03:00:00,42.805,6.029,CST-1368DR,4512,5073,11960,01.067,551
2022-11-06T03:03:01,42.805,6.029,CST-1368DR,4512,5074,11963,01.066,551
2022-11-06T03:06:03,42.805,6.029,CST-1368DR,4512,5073,11962,01.066,551
2022-11-06T03:09:04,42.805,6.029,CST-1368DR,4512,5073,11961,01.067,551
2022-11-06T03:12:06,42.805,6.029,CST-1368DR,4512,5074,11964,01.066,551
2022-11-06T03:15:07,42.805,6.029,CST-1368DR,4512,5073,11960,01.067,551
2022-11-06T03:18:09,42.805,6.029,CST-1368DR,4512,5074,11962,01.066,551
2022-11-06T03:21:11,42.805,6.029,CST-1368DR,4512,5073,11960,01.067,551
2022-11-06T03:24:12,42.805,6.029,CST-1368DR,4512,5072,11958,01.068,551
2022-11-06T03:27:14,42.805,6.029,CST-1368DR,4512,5073,11960,01.067,551
2022-11-06T03:30:15,42.805,6.029,CST-1368DR,4512,5076,11967,01.065,551
2022-11-06T03:33:17,42.805,6.029,CST-1368DR,4512,5069,11952,01.070,551
2022-11-06T03:36:18,42.805,6.029,CST-1368DR,4512,5073,11961,01.067,551
2022-11-06T03:39:20,42.805,6.029,CST-1368DR,4512,5074,11963,01.066,551
2022-11-06T03:42:22,42.805,6.029,CST-1368DR,4512,5070,11953,01.069,551
2022-11-06T03:45:23,42.805,6.029,CST-1368DR,4512,5078,11972,01.063,551
2022-11-06T03:48:25,42.805,6.029,CST-1368DR,4512,5075,11965,01.065,551
2022-11-06T03:51:26,42.805,6.029,CST-1368DR,4512,5075,11966,01.065,551
2022-11-06T03:54:28,42.805,6.029,CST-1368DR,4512,5071,11956,01.068,551
2022-11-06T03:57:30,42.805,6.029,CST-1368DR,4512,5075,11966,01.065,551
2022-11-06T04:00:31,42.805,6.029,CST-1368DR,4512,5070,11954,01.069,551
2022-11-06T04:03:33,42.805,6.029,CST-1368DR,4512,5073,11960,01.067,551
2022-11-06T04:06:34,42.805,6.029,CST-1368DR,4512,5074,11964,01.066,551
2022-11-06T04:09:36,42.805,6.029,CST-1368DR,4512,5075,11965,01.065,551
2022-11-06T04:12:37,42.805,6.029,CST-1368DR,4512,5073,11961,01.067,551
2022-11-06T04:15:39,42.805,6.029,CST-1368DR,4512,5075,11965,01.065,551
2022-11-06T04:18:41,42.805,6.029,CST-1368DR,4512,5070,11954,01.069,551
2022-11-06T04:21:42,42.805,6.029,CST-1368DR,4512,5075,11965,01.065,551
2022-11-06T04:24:44,42.805,6.029,CST-1368DR,4512,5073,11961,01.067,551
2022-11-06T04:27:45,42.805,6.029,CST-1368DR,4512,5071,11956,01.068,551
2022-11-06T04:30:47,42.805,6.029,CST-1368DR,4512,5080,11978,01.061,551
2022-11-06T04:33:48,42.805,6.029,CST-1368DR,4512,5079,11975,01.062,551
2022-11-06T04:36:50,42.805,6.029,CST-1368DR,4512,5076,11969,01.064,551
2022-11-06T04:39:52,42.805,6.029,CST-1368DR,4512,5074,11964,01.066,551
2022-11-06T04:42:53,42.805,6.029,CST-1368DR,4512,5075,11965,01.065,551
2022-11-06T04:45:55,42.805,6.029,CST-1368DR,4512,5075,11966,01.065,551
2022-11-06T04:48:56,42.805,6.029,CST-1368DR,4512,5070,11953,01.069,551
2022-11-06T04:51:58,42.805,6.029,CST-1368DR,4512,5070,11954,01.069,551
2022-11-06T04:55:00,42.805,6.029,CST-1368DR,4512,5069,11951,01.070,551
2022-11-06T04:58:01,42.805,6.029,CST-1368DR,4512,5073,11960,01.067,551
2022-11-06T05:01:03,42.805,6.029,CST-1368DR,4512,5070,11953,01.069,551
2022-11-06T05:04:04,42.805,6.029,CST-1368DR,4512,5073,11960,01.067,551
2022-11-06T05:07:06,42.805,6.029,CST-1368DR,4511,5068,11951,01.070,551
2022-11-06T05:10:07,42.805,6.029,CST-1368DR,4512,5068,11950,01.070,551
2022-11-06T05:13:09,42.805,6.029,CST-1368DR,4512,5072,11957,01.068,551
2022-11-06T05:16:11,42.805,6.029,CST-1368DR,4512,5074,11962,01.066,551
2022-11-06T05:19:12,42.805,6.029,CST-1368DR,4512,5074,11964,01.066,551
2022-11-06T05:22:14,42.805,6.029,CST-1368DR,4512,5070,11954,01.069,551
2022-11-06T05:25:15,42.805,6.029,CST-1368DR,4512,5074,11964,01.066,551
2022-11-06T05:28:17,42.805,6.029,CST-1368DR,4512,5075,11966,01.065,551
2022-11-06T05:31:18,42.805,6.029,CST-1368DR,4512,5073,11960,01.067,551
2022-11-06T05:34:20,42.805,6.029,CST-1368DR,4512,5073,11962,01.066,551
2022-11-06T05:37:22,42.805,6.029,CST-1368DR,4512,5071,11957,01.068,551
2022-11-06T05:40:23,42.805,6.029,CST-1368DR,4512,5075,11965,01.065,551
2022-11-06T05:43:25,42.805,6.029,CST-1368DR,4511,5071,11959,01.067,551
2022-11-06T05:46:26,42.805,6.029,CST-1368DR,4512,5073,11962,01.066,551
2022-11-06T05:49:28,42.805,6.029,CST-1368DR,4512,5072,11958,01.068,551
2022-11-06T05:52:30,42.805,6.029,CST-1368DR,4512,5073,11960,01.067,551
2022-11-06T05:55:31,42.805,6.029,CST-1368DR,4512,5068,11950,01.070,551
2022-11-06T05:58:33,42.805,6.029,CST-1368DR,4512,5070,11953,01.069,551
2022-11-06T06:01:34,42.805,6.029,CST-1368DR,4512,5069,11951,01.070,551
2022-11-06T06:04:36,42.805,6.029,CST-1368DR,4512,5068,11948,01.071,551
2022-11-06T06:07:37,42.805,6.029,CST-1368DR,4512,5072,11958,01.068,551
2022-11-06T06:10:39,42.805,6.029,CST-1368DR,4512,5070,11954,01.069,551
2022-11-06T06:13:41,42.805,6.029,CST-1368DR,4512,5067,11947,01.071,551
2022-11-06T06:16:42,42.805,6.029,CST-1368DR,4511,5071,11958,01.068,551
2022-11-06T06:19:44,42.805,6.029,CST-1368DR,4511,5070,11955,01.069,551
2022-11-06T06:22:45,42.805,6.029,CST-1368DR,4511,5069,11953,01.069,551
2022-11-06T06:25:47,42.805,6.029,CST-1368DR,4512,5070,11954,01.069,551
2022-11-06T06:28:48,42.805,6.029,CST-1368DR,4511,5070,11955,01.069,551
2022-11-06T06:31:50,42.805,6.029,CST-1368DR,4511,5068,11951,01.070,551
2022-11-06T06:34:52,42.805,6.029,CST-1368DR,4511,5069,11954,01.069,551
2022-11-06T06:37:53,42.805,6.029,CST-1368DR,4511,5067,11949,01.071,551
2022-11-06T06:40:55,42.805,6.029,CST-1368DR,4511,5069,11954,01.069,551
2022-11-06T06:43:56,42.805,6.029,CST-1368DR,4511,5067,11948,01.071,551
2022-11-06T06:46:58,42.805,6.029,CST-1368DR,4511,5067,11949,01.071,551
2022-11-06T06:50:00,42.805,6.029,CST-1368DR,4511,5066,11948,01.071,551
2022-11-06T06:53:01,42.805,6.029,CST-1368DR,4511,5064,11943,01.073,551
2022-11-06T06:56:03,42.805,6.029,CST-1368DR,4511,5068,11951,01.070,551
2022-11-06T06:59:04,42.805,6.029,CST-1368DR,4511,5065,11945,01.072,551
2022-11-06T07:02:06,42.805,6.029,CST-1368DR,4511,5066,11946,01.072,551
2022-11-06T07:05:07,42.805,6.029,CST-1368DR,4511,5070,11956,01.068,551
2022-11-06T07:08:09,42.805,6.029,CST-1368DR,4511,5066,11946,01.072,551
2022-11-06T07:11:11,42.805,6.029,CST-1368DR,4511,5022,11842,01.107,551
2022-11-06T07:14:12,42.805,6.029,CST-1368DR,4511,5034,11872,01.096,551
2022-11-06T07:17:14,42.805,6.029,CST-1368DR,4510,4825,11381,01.265,551
2022-11-06T07:20:15,42.805,6.029,CST-1368DR,4511,5035,11873,01.096,551
2022-11-06T07:23:17,42.805,6.029,CST-1368DR,4511,5038,11880,01.094,551
2022-11-06T07:26:18,42.805,6.029,CST-1368DR,4511,5031,11863,01.099,551
2022-11-06T07:29:20,42.805,6.029,CST-1368DR,4511,5031,11864,01.099,551
2022-11-06T07:32:22,42.805,6.029,CST-1368DR,4511,5029,11860,01.100,551
2022-11-06T07:35:23,42.805,6.029,CST-1368DR,4511,5036,11876,01.095,551
2022-11-06T07:38:25,42.805,6.029,CST-1368DR,4511,5034,11872,01.096,551
2022-11-06T07:41:26,42.805,6.029,CST-1368DR,4511,5030,11863,01.099,551
2022-11-06T07:44:28,42.805,6.029,CST-1368DR,4511,5041,11888,01.091,551
2022-11-06T07:47:29,42.805,6.029,CST-1368DR,4511,5034,11871,01.097,551
2022-11-06T07:50:31,42.805,6.029,CST-1368DR,4511,5037,11877,01.095,551
2022-11-06T07:53:33,42.805,6.029,CST-1368DR,4511,5034,11872,01.096,551
2022-11-06T07:56:34,42.805,6.029,CST-1368DR,4511,5027,11855,01.102,551
2022-11-06T07:59:36,42.805,6.029,CST-1368DR,4511,5029,11859,01.101,551
2022-11-06T08:02:37,42.805,6.029,CST-1368DR,4511,5037,11879,01.094,551
2022-11-06T08:05:39,42.805,6.029,CST-1368DR,4511,5040,11885,01.092,551
2022-11-06T08:08:41,42.805,6.029,CST-1368DR,4511,5036,11875,01.095,551
2022-11-06T08:11:42,42.805,6.029,CST-1368DR,4511,5035,11874,01.096,551
2022-11-06T08:14:44,42.805,6.029,CST-1368DR,4511,5030,11861,01.100,551
2022-11-06T08:17:45,42.805,6.029,CST-1368DR,4511,5031,11864,01.099,551
2022-11-06T08:20:47,42.805,6.029,CST-1368DR,4511,5032,11867,01.098,551
2022-11-06T08:23:48,42.805,6.029,CST-1368DR,4511,5029,11859,01.101,551
2022-11-06T08:26:50,42.805,6.029,CST-1368DR,4511,5029,11859,01.101,551
2022-11-06T08:29:52,42.805,6.029,CST-1368DR,4511,5033,11870,01.097,551
2022-11-06T08:32:53,42.805,6.029,CST-1368DR,4511,5028,11857,01.102,551
2022-11-06T08:35:55,42.805,6.029,CST-1368DR,4511,5029,11859,01.101,551
2022-11-06T08:38:56,42.805,6.029,CST-1368DR,4511,5042,11891,01.090,551
2022-11-06T08:41:58,42.805,6.029,CST-1368DR,4511,5027,11854,01.103,551
2022-11-06T08:45:00,42.805,6.029,CST-1368DR,4511,5031,11864,01.099,551
2022-11-06T08:48:01,42.805,6.029,CST-1368DR,4511,5030,11862,01.100,551
2022-11-06T08:51:03,42.805,6.029,CST-1368DR,4511,5027,11854,01.103,551
2022-11-06T08:54:04,42.805,6.029,CST-1368DR,4511,5033,11868,01.098,551
2022-11-06T08:57:06,42.805,6.029,CST-1368DR,4511,5030,11862,01.100,551
2022-11-06T09:00:07,42.805,6.029,CST-1368DR,4511,5029,11859,01.101,551
2022-11-06T09:03:09,42.805,6.029,CST-1368DR,4511,5023,11844,01.106,551
2022-11-06T09:06:11,42.805,6.029,CST-1368DR,4511,5021,11841,01.107,551
2022-11-06T09:09:12,42.805,6.029,CST-1368DR,4511,5023,11846,01.105,551
2022-11-06T09:12:14,42.805,6.029,CST-1368DR,4511,5018,11834,01.109,551
2022-11-06T09:15:15,42.805,6.029,CST-1368DR,4511,5021,11840,01.107,551
2022-11-06T09:18:17,42.805,6.029,CST-1368DR,4511,5020,11839,01.108,551
2022-11-06T09:21:18,42.805,6.029,CST-1368DR,4510,4915,11594,01.191,551
2022-11-06T09:24:20,42.805,6.029,CST-1368DR,4511,5007,11808,01.118,551
2022-11-06T09:27:22,42.805,6.029,CST-1368DR,4511,5017,11832,01.110,551
2022-11-06T09:30:23,42.805,6.029,CST-1368DR,4511,5017,11832,01.110,551
2022-11-06T09:33:25,42.805,6.029,CST-1368DR,4511,5024,11848,01.105,551
2022-11-06T09:36:26,42.805,6.029,CST-1368DR,4511,5019,11836,01.109,551
2022-11-06T09:39:28,42.805,6.029,CST-1368DR,4511,5018,11833,01.110,551
2022-11-06T09:42:30,42.805,6.029,CST-1368DR,4511,5020,11837,01.108,551
2022-11-06T09:45:31,42.805,6.029,CST-1368DR,4511,5015,11826,01.112,551
2022-11-06T09:48:33,42.805,6.029,CST-1368DR,4511,5020,11838,01.108,551
2022-11-06T09:51:34,42.805,6.029,CST-1368DR,4511,5022,11842,01.107,551
2022-11-06T09:54:36,42.805,6.029,CST-1368DR,4511,5018,11833,01.110,551
2022-11-06T09:57:37,42.805,6.029,CST-1368DR,4511,5021,11840,01.107,551
2022-11-06T10:00:39,42.805,6.029,CST-1368DR,4511,5023,11845,01.106,551
2022-11-06T10:03:41,42.805,6.029,CST-1368DR,4510,4942,11657,01.170,551
2022-11-06T10:06:42,42.805,6.029,CST-1368DR,4511,5017,11830,01.111,551
2022-11-06T10:09:44,42.805,6.029,CST-1368DR,4511,5014,11823,01.113,551
2022-11-06T10:12:45,42.805,6.029,CST-1368DR,4511,5018,11833,01.110,551
2022-11-06T10:15:47,42.805,6.029,CST-1368DR,4511,5030,11863,01.099,551
2022-11-06T10:18:48,42.805,6.029,CST-1368DR,4511,5018,11833,01.110,551
2022-11-06T10:21:50,42.805,6.029,CST-1368DR,4511,5021,11840,01.107,551
2022-11-06T10:24:52,42.805,6.029,CST-1368DR,4511,5029,11859,01.101,551
2022-11-06T10:27:53,42.805,6.029,CST-1368DR,4511,5023,11844,01.106,551
2022-11-06T10:30:55,42.805,6.029,CST-1368DR,4511,5024,11847,01.105,551
2022-11-06T10:33:56,42.805,6.029,CST-1368DR,4511,5026,11851,01.104,551
2022-11-06T10:36:58,42.805,6.029,CST-1368DR,4511,5021,11840,01.107,551
2022-11-06T10:40:00,42.805,6.029,CST-1368DR,4511,5026,11853,01.103,551
2022-11-06T10:43:01,42.805,6.029,CST-1368DR,4511,4999,11788,01.125,551
2022-11-06T10:46:03,42.805,6.029,CST-1368DR,4511,5020,11838,01.108,551
2022-11-06T10:49:04,42.805,6.029,CST-1368DR,4511,5023,11846,01.105,551
2022-11-06T10:52:06,42.805,6.029,CST-1368DR,4511,5019,11836,01.109,551
2022-11-06T10:55:07,42.805,6.029,CST-1368DR,4511,5020,11837,01.108,551
2022-11-06T10:58:09,42.805,6.029,CST-1368DR,4511,5020,11837,01.108,551
2022-11-06T11:01:11,42.805,6.029,CST-1368DR,4511,5030,11861,01.100,551
2022-11-06T11:04:12,42.805,6.029,CST-1368DR,4511,5020,11839,01.108,551
2022-11-06T11:07:14,42.805,6.029,CST-1368DR,4511,5023,11846,01.105,551
2022-11-06T11:10:15,42.805,6.029,CST-1368DR,4511,5025,11849,01.104,551
2022-11-06T11:13:17,42.805,6.029,CST-1368DR,4511,5024,11847,01.105,551
2022-11-06T11:16:19,42.805,6.029,CST-1368DR,4511,5022,11843,01.106,551
2022-11-06T11:19:20,42.805,6.029,CST-1368DR,4511,5018,11833,01.110,551
2022-11-06T11:22:22,42.805,6.029,CST-1368DR,4511,5019,11836,01.109,551
2022-11-06T11:25:23,42.805,6.029,CST-1368DR,4511,5030,11862,01.100,551
2022-11-06T11:28:25,42.805,6.029,CST-1368DR,4510,4972,11727,01.146,551
2022-11-06T11:31:26,42.805,6.029,CST-1368DR,4511,5021,11840,01.107,551
2022-11-06T11:34:28,42.805,6.029,CST-1368DR,4511,5023,11845,01.106,551
2022-11-06T11:37:30,42.805,6.029,CST-1368DR,4511,5015,11827,01.112,551
2022-11-06T11:40:31,42.805,6.029,CST-1368DR,4511,5023,11844,01.106,551
2022-11-06T11:43:33,42.805,6.029,CST-1368DR,4511,5019,11835,01.109,551
2022-11-06T11:46:34,42.805,6.029,CST-1368DR,4511,5015,11826,01.112,551
2022-11-06T11:49:36,42.805,6.029,CST-1368DR,4511,5021,11841,01.107,551
2022-11-06T11:52:37,42.805,6.029,CST-1368DR,4511,5020,11839,01.108,551
2022-11-06T11:55:39,42.805,6.029,CST-1368DR,4511,5016,11830,01.111,551
2022-11-06T11:58:41,42.805,6.029,CST-1368DR,4511,5017,11830,01.111,551
2022-11-06T12:01:42,42.805,6.029,CST-1368DR,4511,5009,11811,01.117,551
2022-11-06T12:04:44,42.805,6.029,CST-1368DR,4511,5014,11823,01.113,551
2022-11-06T12:07:45,42.805,6.029,CST-1368DR,4511,5015,11827,01.112,551
2022-11-06T12:10:47,42.805,6.029,CST-1368DR,4511,5016,11829,01.111,551
2022-11-06T12:13:49,42.805,6.029,CST-1368DR,4511,5020,11837,01.108,551
2022-11-06T12:16:50,42.805,6.029,CST-1368DR,4511,5016,11830,01.111,551
2022-11-06T12:19:52,42.805,6.029,CST-1368DR,4511,5024,11848,01.105,551
2022-11-06T12:22:53,42.805,6.029,CST-1368DR,4511,5013,11822,01.113,551
2022-11-06T12:25:55,42.805,6.029,CST-1368DR,4511,5018,11833,01.110,551
2022-11-06T12:28:56,42.805,6.029,CST-1368DR,4511,5029,11860,01.100,551
2022-11-06T12:31:58,42.805,6.029,CST-1368DR,4511,5021,11840,01.107,551
2022-11-06T12:35:00,42.805,6.029,CST-1368DR,4511,5027,11856,01.102,551
2022-11-06T12:38:01,42.805,6.029,CST-1368DR,4511,5026,11852,01.103,551
2022-11-06T12:41:03,42.805,6.029,CST-1368DR,4511,5026,11851,01.104,551
2022-11-06T12:44:04,42.805,6.029,CST-1368DR,4511,5031,11864,01.099,551
2022-11-06T12:47:06,42.805,6.029,CST-1368DR,4511,5034,11872,01.096,551
2022-11-06T12:50:07,42.805,6.029,CST-1368DR,4511,5024,11848,01.105,551
2022-11-06T12:53:09,42.805,6.029,CST-1368DR,4511,5023,11846,01.105,551
2022-11-06T12:56:11,42.805,6.029,CST-1368DR,4511,5023,11845,01.106,551
2022-11-06T12:59:12,42.805,6.029,CST-1368DR,4511,5020,11837,01.108,551
2022-11-06T13:02:14,42.805,6.029,CST-1368DR,4511,5031,11863,01.099,551
2022-11-06T13:05:15,42.805,6.029,CST-1368DR,4511,5014,11824,01.113,551
2022-11-06T13:08:17,42.805,6.029,CST-1368DR,4511,5013,11823,01.113,551
2022-11-06T13:11:19,42.805,6.029,CST-1368DR,4511,5030,11861,01.100,551
2022-11-06T13:14:20,42.805,6.029,CST-1368DR,4511,5027,11854,01.103,551
2022-11-06T13:17:22,42.805,6.029,CST-1368DR,4511,5010,11815,01.116,551
2022-11-06T13:20:23,42.805,6.029,CST-1368DR,4511,5025,11849,01.104,551
2022-11-06T13:23:25,42.805,6.029,CST-1368DR,4511,5016,11829,01.111,551
2022-11-06T13:26:26,42.805,6.029,CST-1368DR,4511,5024,11848,01.105,551
2022-11-06T13:29:28,42.805,6.029,CST-1368DR,4511,5016,11828,01.111,551
2022-11-06T13:32:30,42.805,6.029,CST-1368DR,4511,5020,11839,01.108,551
2022-11-06T13:35:31,42.805,6.029,CST-1368DR,4511,5016,11828,01.111,551
2022-11-06T13:38:33,42.805,6.029,CST-1368DR,4511,5018,11833,01.110,551
2022-11-06T13:41:34,42.805,6.029,CST-1368DR,4511,5023,11845,01.106,551
2022-11-06T13:44:36,42.805,6.029,CST-1368DR,4511,5025,11850,01.104,551
2022-11-06T13:47:37,42.805,6.029,CST-1368DR,4511,5010,11816,01.115,551
2022-11-06T13:50:39,42.805,6.029,CST-1368DR,4511,5022,11844,01.106,551
2022-11-06T13:53:41,42.805,6.029,CST-1368DR,4511,5021,11841,01.107,551
2022-11-06T13:56:42,42.805,6.029,CST-1368DR,4511,5022,11843,01.106,551
2022-11-06T13:59:44,42.805,6.029,CST-1368DR,4511,5031,11864,01.099,551
2022-11-06T14:02:45,42.805,6.029,CST-1368DR,4511,5034,11872,01.096,551
2022-11-06T14:05:47,42.805,6.029,CST-1368DR,4511,5016,11830,01.111,551
2022-11-06T14:08:49,42.805,6.029,CST-1368DR,4511,5025,11849,01.104,551
2022-11-06T14:11:50,42.805,6.029,CST-1368DR,4511,5011,11816,01.115,551
2022-11-06T14:14:52,42.805,6.029,CST-1368DR,4511,5018,11834,01.109,551
2022-11-06T14:17:53,42.805,6.029,CST-1368DR,4511,5025,11850,01.104,551
2022-11-06T14:20:55,42.805,6.029,CST-1368DR,4511,5019,11837,01.108,551
2022-11-06T14:23:56,42.805,6.029,CST-1368DR,4511,5033,11868,01.098,551
2022-11-06T14:26:58,42.805,6.029,CST-1368DR,4510,5013,11823,01.113,551
2022-11-06T14:30:00,42.805,6.029,CST-1368DR,4511,5060,11933,01.076,551
2022-11-06T14:33:01,42.805,6.029,CST-1368DR,4511,5058,11928,01.078,551
2022-11-06T14:36:03,42.805,6.029,CST-1368DR,4511,5060,11933,01.076,551
2022-11-06T14:39:04,42.805,6.029,CST-1368DR,4511,5056,11922,01.080,551
2022-11-06T14:42:06,42.805,6.029,CST-1368DR,4511,5058,11929,01.077,551
2022-11-06T14:45:08,42.805,6.029,CST-1368DR,4511,5060,11933,01.076,551
2022-11-06T14:48:09,42.805,6.029,CST-1368DR,4511,5059,11930,01.077,551
2022-11-06T14:51:11,42.805,6.029,CST-1368DR,4511,5062,11936,01.075,551
2022-11-06T14:54:12,42.805,6.029,CST-1368DR,4511,5059,11930,01.077,551
2022-11-06T14:57:14,42.805,6.029,CST-1368DR,4511,5053,11917,01.081,551
2022-11-06T15:00:15,42.805,6.029,CST-1368DR,4511,5058,11929,01.077,551
2022-11-06T15:03:17,42.805,6.029,CST-1368DR,4511,5059,11930,01.077,551
2022-11-06T15:06:19,42.805,6.029,CST-1368DR,4511,5062,11936,01.075,551
2022-11-06T15:09:20,42.805,6.029,CST-1368DR,4511,5059,11930,01.077,551
2022-11-06T15:12:22,42.805,6.029,CST-1368DR,4511,5062,11938,01.074,551
2022-11-06T15:15:23,42.805,6.029,CST-1368DR,4511,5060,11932,01.076,551
2022-11-06T15:18:25,42.805,6.029,CST-1368DR,4511,5060,11933,01.076,551
2022-11-06T15:21:26,42.805,6.029,CST-1368DR,4511,5058,11927,01.078,551
2022-11-06T15:24:28,42.805,6.029,CST-1368DR,4511,5072,11960,01.067,551
2022-11-06T15:27:30,42.805,6.029,CST-1368DR,4511,5070,11956,01.068,551
2022-11-06T15:30:31,42.805,6.029,CST-1368DR,4511,5065,11945,01.072,551
2022-11-06T15:33:33,42.805,6.029,CST-1368DR,4511,5062,11938,01.074,551
2022-11-06T15:36:34,42.805,6.029,CST-1368DR,4511,5060,11932,01.076,551
2022-11-06T15:39:36,42.805,6.029,CST-1368DR,4511,5067,11948,01.071,551
2022-11-06T15:42:38,42.805,6.029,CST-1368DR,4511,5057,11926,01.078,551
2022-11-06T15:45:39,42.805,6.029,CST-1368DR,4511,5064,11942,01.073,551
2022-11-06T15:48:41,42.805,6.029,CST-1368DR,4511,5061,11936,01.075,551
2022-11-06T15:51:42,42.805,6.029,CST-1368DR,4511,5059,11930,01.077,551
2022-11-06T15:54:44,42.805,6.029,CST-1368DR,4511,5062,11938,01.074,551
2022-11-06T15:57:45,42.805,6.029,CST-1368DR,4511,5053,11916,01.082,551
2022-11-06T16:00:47,42.805,6.029,CST-1368DR,4511,5059,11930,01.077,551
2022-11-06T16:03:49,42.805,6.029,CST-1368DR,4511,5061,11934,01.076,551
2022-11-06T16:06:50,42.805,6.029,CST-1368DR,4511,5063,11939,01.074,551
2022-11-06T16:09:52,42.805,6.029,CST-1368DR,4511,5054,11919,01.081,551
2022-11-06T16:12:53,42.805,6.029,CST-1368DR,4511,5062,11938,01.074,551
2022-11-06T16:15:55,42.805,6.029,CST-1368DR,4511,5068,11952,01.070,551
2022-11-06T16:18:57,42.805,6.029,CST-1368DR,4511,5076,11970,01.064,551
2022-11-06T16:21:58,42.805,6.029,CST-1368DR,4511,5056,11922,01.080,551
2022-11-06T16:25:00,42.805,6.029,CST-1368DR,4511,5073,11964,01.066,551
2022-11-06T16:28:01,42.805,6.029,CST-1368DR,4511,5080,11979,01.061,551
2022-11-06T16:31:03,42.805,6.029,CST-1368DR,4511,5085,11991,01.057,551
2022-11-06T16:34:04,42.805,6.029,CST-1368DR,4511,5084,11989,01.057,551
2022-11-06T16:37:06,42.805,6.029,CST-1368DR,4511,5083,11988,01.058,551